星链-3605 (STARLINK-3605 )

导读 | 豆包AI

STARLINK-3605是美国太空探索技术公司(SpaceX)于2022年2月25日发射的星链(Starlink)项目卫星,属于Starlink V1.0版本。该卫星运行在近地轨道,轨道倾角53.16°,近地点约475公里,周期约94分钟,是星链全球低轨卫星互联网星座的组成部分,为全球提供高速低延迟互联网接入服务。

基本信息
目录编号:
51805
目录名称:
STARLINK-3605
国际标识:
2022-017AP
轨道中心:
EARTH
卫星名称:
星链-3605
卫星全名:
星链-3605 (STARLINK-3605 )
卫星状态:
在轨 (已飞行1525 天)
发射日期:
2022-02-25 UTC
国别 :
美国 (US)
星等 :
--
轨道信息
数据来源 国际轨道数据 AOE轨道数据
星历时间 2026-04-30T18:12:17+0800
13小时前
查看轨道信息
2026-04-27T02:00:00+0800
4天前
查看轨道信息
半长轴 6917.887km 6917.858km
偏心率 0.0001349 0.000124
轨道倾角 53.217° 53.215°
近地点辐角 82.977° 72.195°
升交点赤经 96.948° 113.447°
平近点角 277.137° 114.036°
近地点 538.816km 538.863km
远地点 540.684km 540.579km
周期 95.438分钟 95.437分钟
每日圈数 15.08838 15.088474
详细信息
固有亮度:
5
最大亮度:
2.5
卫星平台:
Starlink v1.5
覆盖范围:
全球
运营商:
太空探索技术公司
运营商所在国:
美国
制造商(研发单位):
太空探索技术公司
制造商所在国:
美国
使用方式:
暂无
卫星简介
星链(Starlink)计划是由太空探索技术公司(SpaceX)提出的一个巨型低轨卫星互联网星座项目,计划在2019年至2024年间在太空搭建由约1.2万颗卫星组成的“星链”网络,其中1584颗将部署在地球上空550千米处的近地轨道,并从2020年开始工作。该卫星仍在工作。
2D轨道图
3D轨道图
轨道高度分析图
轨道倾角分析图
轨道综合分析图
查看轨道综合分析图